PY3MO-13 Weather Reports


time (UTC)temp
C
wind
direction
speed
KPH
gust
KPH
rain 1hr
cm
rain 24hr
cm
rain mn
cm
humidity
%
barometer
mb
20260508075506 13 241 1.6 8.0 0.10 0.46 0.46 96 1004.1
20260508075005 14 249 4.8 9.7 0.13 0.46 0.46 97 1004.2
20260508074505 14 271 4.8 9.7 0.18 0.46 0.46 98 1004.2
20260508074006 15 263 4.8 9.7 0.13 0.43 0.43 99 1004.7
20260508073506 15 259 6.4 9.7 0.18 0.43 0.43 99 1003.8
20260508073005 16 256 0.0 14.5 0.18 0.43 0.43 99 1004.2
20260508072505 16 280 3.2 14.5 0.18 0.43 0.43 99 1004.7
20260508072005 16 296 4.8 9.7 0.18 0.43 0.43 99 1004.8
20260508071506 16 288 4.8 8.0 0.13 0.41 0.41 99 1004.6
20260508071005 16 279 4.8 8.0 0.10 0.38 0.38 99 1004.4
20260508070505 16 262 1.6 9.7 0.13 0.38 0.38 98 1005.1
20260508070005 16 276 3.2 9.7 0.10 0.36 0.36 97 1004.5
20260508065506 16 289 4.8 11.3 0.10 0.36 0.36 97 1004.4
20260508065006 16 283 3.2 17.7 0.08 0.30 0.30 96 1004.4
20260508064505 16 297 4.8 17.7 0.08 0.28 0.28 96 1004.5
20260508064005 16 288 9.7 17.7 0.08 0.28 0.28 96 1004.7
20260508063506 16 284 8.0 14.5 0.05 0.25 0.25 96 1004.5
20260508063006 16 298 4.8 14.5 0.08 0.25 0.25 96 1004.4
20260508062506 16 298 6.4 17.7 0.13 0.25 0.25 96 1004.4
20260508062005 16 302 9.7 17.7 0.25 0.25 0.25 96 1004.5
20260508061507 16 300 9.7 17.7 0.25 0.25 0.25 96 1004.9
20260508061006 16 280 9.7 19.3 0.25 0.25 0.25 97 1004.6
20260508060506 16 293 6.4 22.5 0.23 0.23 0.23 97 1004.4
20260508060005 16 311 9.7 22.5 0.23 0.23 0.23 97 1004.3
20260508055505 16 285 3.2 11.3 0.23 0.23 0.23 97 1004.7
20260508055006 16 293 4.8 11.3 0.23 0.23 0.23 96 1004.8
20260508054506 16 299 4.8 9.7 0.20 0.20 0.20 94 1005.0
20260508054005 17 262 3.2 25.7 0.20 0.20 0.20 93 1005.0
20260508053505 17 265 4.8 25.7 0.20 0.20 0.20 91 1005.1
20260508053006 17 275 11.3 20.9 0.18 0.18 0.18 85 1005.6
20260508052506 18 272 9.7 19.3 0.08 0.08 0.08 81 1005.7
20260508052006 18 265 6.4 14.5 0.00 0.00 0.00 80 1004.5
20260508051505 18 260 9.7 14.5 0.00 0.00 0.00 79 1004.2
20260508051006 18 265 6.4 12.9 0.00 0.00 0.00 78 1004.4
20260508050506 18 262 6.4 11.3 0.00 0.00 0.00 77 1004.3
20260508050006 18 260 0.0 12.9 0.00 0.00 0.00 76 1003.9
20260508045505 19 264 8.0 14.5 0.00 0.00 0.00 75 1004.0
20260508045005 19 288 4.8 14.5 0.00 0.00 0.00 74 1003.9
20260508044506 19 279 8.0 12.9 0.00 0.00 0.00 74 1003.8
20260508044006 19 261 4.8 9.7 0.00 0.00 0.00 73 1004.1
20260508043505 20 267 4.8 14.5 0.00 0.00 0.00 73 1004.2
20260508043005 20 277 4.8 14.5 0.00 0.00 0.00 72 1004.3
20260508042506 20 299 6.4 12.9 0.00 0.00 0.00 70 1004.2
20260508042006 21 289 8.0 12.9 0.00 0.00 0.00 69 1004.1
20260508041505 21 296 8.0 25.7 0.00 0.00 0.00 66 1004.2
20260508041005 21 297 3.2 25.7 0.00 0.00 0.00 65 1003.7
20260508040506 22 250 9.7 14.5 0.00 0.00 0.00 65 1004.8
20260508040006 22 228 4.8 14.5 0.00 0.00 0.00 65 1004.2
20260508035506 22 275 4.8 12.9 0.00 0.00 0.00 65 1004.4
20260508035005 22 295 4.8 12.9 0.00 0.00 0.00 65 1004.1
20260508034506 22 300 6.4 14.5 0.00 0.00 0.00 64 1004.3
20260508034006 22 296 3.2 14.5 0.00 0.00 0.00 64 1004.2
20260508033506 22 298 8.0 16.1 0.00 0.00 0.00 64 1004.2
20260508033005 22 299 3.2 16.1 0.00 0.00 0.00 64 1004.3
20260508032505 22 289 6.4 11.3 0.00 0.00 0.00 63 1004.3
20260508032006 22 293 6.4 12.9 0.00 0.00 0.00 63 1004.1
20260508031506 22 273 6.4 14.5 0.00 0.00 0.00 63 1004.1
20260508031005 22 323 8.0 24.1 0.00 0.00 0.00 63 1004.3
20260508030505 22 347 11.3 24.1 0.00 0.00 0.00 63 1004.4
20260508030006 22 290 3.2 19.3 0.00 0.00 0.00 63 1004.4
20260508025506 22 263 9.7 14.5 0.00 0.00 0.00 63 1004.7
20260508025006 22 277 9.7 14.5 0.00 0.00 0.00 63 1004.7
20260508024505 22 302 4.8 9.7 0.00 0.00 0.00 63 1004.5
20260508024006 22 316 3.2 12.9 0.00 0.00 0.00 63 1004.3
20260508023506 22 336 8.0 14.5 0.00 0.00 0.00 63 1004.3
20260508023005 22 342 6.4 14.5 0.00 0.00 0.00 63 1004.3
20260508022505 22 342 6.4 14.5 0.00 0.00 0.00 63 1004.4
20260508022210 22 334 4.8 14.5 0.00 0.00 0.00 63 1004.3
20260508022005 22 318 6.4 14.5 0.00 0.00 0.00 63 1004.4
20260508021712 22 323 8.0 14.5 0.00 0.00 0.00 63 1004.5
20260508021506 22 319 1.6 14.5 0.00 0.00 0.00 63 1004.3
20260508021211 22 312 6.4 14.5 0.00 0.00 0.00 63 1004.6
20260508021006 22 315 6.4 9.7 0.00 0.00 0.00 63 1004.7
20260508020712 22 289 1.6 9.7 0.00 0.00 0.00 63 1004.5
20260508020506 22 290 6.4 12.9 0.00 0.00 0.00 63 1004.5
20260508020005 22 285 3.2 12.9 0.00 0.00 0.00 63 1004.8
20260508015505 22 284 8.0 12.9 0.00 0.00 0.00 63 1004.9
20260508015005 22 271 4.8 14.5 0.00 0.00 0.00 63 1004.9
20260508014506 22 277 4.8 14.5 0.00 0.00 0.00 63 1005.1
20260508014006 22 302 4.8 11.3 0.00 0.00 0.00 63 1005.1
20260508013711 22 277 4.8 12.9 0.00 0.00 0.00 63 1005.1
20260508013505 22 267 4.8 12.9 0.00 0.00 0.00 63 1005.1
20260508013211 22 250 3.2 12.9 0.00 0.00 0.00 63 1005.3
20260508013005 22 234 9.7 12.9 0.00 0.00 0.00 63 1005.3
20260508012712 22 286 6.4 12.9 0.00 0.00 0.00 63 1005.1
20260508012506 22 310 3.2 12.9 0.00 0.00 0.00 63 1005.1
20260508012006 22 320 1.6 12.9 0.00 0.00 0.00 63 1005.0
20260508011711 22 317 4.8 14.5 0.00 0.00 0.00 63 1005.2
20260508011505 22 317 6.4 14.5 0.00 0.00 0.00 63 1005.2
20260508011211 22 310 4.8 14.5 0.00 0.00 0.00 64 1005.2
20260508011007 22 298 4.8 14.5 0.00 0.00 0.00 64 1005.3
20260508010712 22 294 4.8 8.0 0.00 0.00 0.00 64 1005.2
20260508010506 22 293 1.6 17.7 0.00 0.00 0.00 64 1005.2
20260508010211 22 292 3.2 17.7 0.00 0.00 0.00 64 1005.1
20260508010006 22 290 4.8 17.7 0.00 0.00 0.00 64 1005.0
20260508005711 22 284 6.4 17.7 0.00 0.00 0.00 64 1005.1
20260508005505 22 273 12.9 17.7 0.00 0.00 0.00 64 1005.1
20260508005211 22 264 3.2 9.7 0.00 0.00 0.00 64 1005.1
20260508005005 22 268 3.2 9.7 0.00 0.00 0.00 64 1005.1
20260508004713 22 258 3.2 9.7 0.00 0.00 0.00 64 1005.2
20260508004506 22 280 4.8 9.7 0.00 0.00 0.00 64 1005.2
20260508004212 22 304 6.4 11.3 0.00 0.00 0.00 64 1005.2
20260508004006 22 289 3.2 11.3 0.00 0.00 0.00 64 1005.1
20260508003711 22 296 0.0 11.3 0.00 0.00 0.00 64 1005.2
20260508003505 22 289 3.2 11.3 0.00 0.00 0.00 64 1005.3
20260508003211 22 289 8.0 14.5 0.00 0.00 0.00 64 1005.0
20260508003006 22 275 0.0 14.5 0.00 0.00 0.00 64 1005.1
20260508002507 22 266 9.7 14.5 0.00 0.00 0.00 64 1005.2
20260508002212 22 257 1.6 8.0 0.00 0.00 0.00 64 1005.2
20260508002006 22 254 4.8 8.0 0.00 0.00 0.00 64 1005.2
20260508001505 22 256 3.2 9.7 0.00 0.00 0.00 64 1005.2
20260508001211 22 249 4.8 9.7 0.00 0.00 0.00 64 1005.2
20260508001005 22 253 4.8 9.7 0.00 0.00 0.00 64 1005.1
20260508000713 22 245 4.8 9.7 0.00 0.00 0.00 64 1005.2
20260508000507 22 259 6.4 9.7 0.00 0.00 0.00 64 1005.2
20260508000212 22 290 6.4 9.7 0.00 0.00 0.00 64 1005.1
20260508000006 22 300 0.0 8.0 0.00 0.00 0.00 63 1005.1
20260507235712 22 293 0.0 9.7 0.00 0.00 0.00 63 1005.2
20260507235505 22 284 3.2 9.7 0.00 0.00 0.00 63 1005.1
20260507235211 22 286 3.2 9.7 0.00 0.00 0.00 63 1005.2
20260507235005 22 288 1.6 9.7 0.00 0.00 0.00 63 1005.0
20260507234506 22 295 0.0 9.7 0.00 0.00 0.00 63 1005.1
20260507234212 22 295 4.8 9.7 0.00 0.00 0.00 63 1005.0
20260507234006 22 278 0.0 6.4 0.00 0.00 0.00 63 1005.1
20260507233712 22 284 1.6 6.4 0.00 0.00 0.00 63 1005.1
20260507233506 22 296 4.8 6.4 0.00 0.00 0.00 63 1004.9
20260507233005 22 271 3.2 11.3 0.00 0.00 0.00 63 1005.1
20260507232507 22 278 3.2 11.3 0.00 0.00 0.00 60 1005.0
20260507232006 22 321 1.6 11.3 0.00 0.00 0.00 60 1004.9
20260507231506 22 297 1.6 11.3 0.00 0.00 0.00 60 1004.7
20260507231211 22 265 0.0 6.4 0.00 0.00 0.00 60 1004.8
20260507231005 22 260 4.8 11.3 0.00 0.00 0.00 60 1005.0
20260507230505 22 255 1.6 11.3 0.00 0.00 0.00 60 1005.2
20260507230006 22 258 4.8 6.4 0.00 0.00 0.00 60 1005.1
20260507225712 22 246 1.6 6.4 0.00 0.00 0.00 60 1004.8
20260507225506 22 254 3.2 8.0 0.00 0.00 0.00 60 1005.1
20260507225006 22 273 4.8 9.7 0.00 0.00 0.00 59 1005.1
20260507224505 22 316 1.6 9.7 0.00 0.00 0.00 58 1005.0
20260507224212 22 304 3.2 9.7 0.00 0.00 0.00 58 1005.0
20260507224006 22 294 6.4 9.7 0.00 0.00 0.00 58 1004.8
20260507223712 22 305 0.0 4.8 0.00 0.00 0.00 58 1004.9
20260507223506 22 278 1.6 8.0 0.00 0.00 0.00 58 1005.1
20260507223006 23 296 0.0 8.0 0.00 0.00 0.00 57 1005.3
20260507222712 23 289 3.2 8.0 0.00 0.00 0.00 57 1005.2
20260507222505 23 315 4.8 9.7 0.00 0.00 0.00 57 1005.0
20260507222007 23 311 0.0 9.7 0.00 0.00 0.00 57 1005.1
20260507221712 23 313 8.0 9.7 0.00 0.00 0.00 57 1005.2
20260507221506 23 308 3.2 9.7 0.00 0.00 0.00 57 1005.2
20260507221211 23 311 0.0 9.7 0.00 0.00 0.00 56 1005.3
20260507221005 23 317 6.4 9.7 0.00 0.00 0.00 56 1005.1
20260507220711 23 301 1.6 9.7 0.00 0.00 0.00 55 1005.2
20260507220505 23 282 0.0 9.7 0.00 0.00 0.00 55 1005.2
20260507220006 23 259 4.8 9.7 0.00 0.00 0.00 55 1005.2
20260507215506 23 253 4.8 9.7 0.00 0.00 0.00 55 1005.1
20260507215006 23 288 4.8 9.7 0.00 0.00 0.00 55 1005.2
20260507214711 23 294 1.6 9.7 0.00 0.00 0.00 56 1005.2
20260507214505 23 294 6.4 9.7 0.00 0.00 0.00 56 1005.3
20260507214213 23 296 0.0 8.0 0.00 0.00 0.00 56 1005.3
20260507214007 23 298 4.8 8.0 0.00 0.00 0.00 56 1005.1
20260507213506 23 298 0.0 4.8 0.00 0.00 0.00 57 1005.2
20260507213212 23 305 1.6 8.0 0.00 0.00 0.00 57 1005.3
20260507213005 23 305 0.0 8.0 0.00 0.00 0.00 57 1005.2
20260507212711 23 298 0.0 8.0 0.00 0.00 0.00 56 1005.3
20260507212505 23 297 0.0 8.0 0.00 0.00 0.00 56 1005.3
20260507212006 23 238 1.6 6.4 0.00 0.00 0.00 57 1005.3
20260507211712 23 278 4.8 6.4 0.00 0.00 0.00 58 1005.3
20260507211506 23 282 3.2 6.4 0.00 0.00 0.00 57 1005.4
20260507211005 23 304 3.2 6.4 0.00 0.00 0.00 58 1005.4
20260507210505 23 309 1.6 4.8 0.00 0.00 0.00 58 1005.5
20260507210006 23 308 1.6 4.8 0.00 0.00 0.00 58 1005.6
20260507205506 23 289 0.0 9.7 0.00 0.00 0.00 57 1005.6
20260507205211 23 318 1.6 16.1 0.00 0.00 0.00 57 1005.5
20260507205006 23 309 0.0 16.1 0.00 0.00 0.00 57 1005.4
20260507204712 24 338 6.4 16.1 0.00 0.00 0.00 56 1005.5
20260507204505 24 336 1.6 16.1 0.00 0.00 0.00 56 1005.5
20260507204006 24 330 3.2 11.3 0.00 0.00 0.00 56 1005.4
20260507203713 24 339 6.4 11.3 0.00 0.00 0.00 56 1005.5
20260507203506 24 348 3.2 11.3 0.00 0.00 0.00 56 1005.5
20260507203211 24 323 3.2 11.3 0.00 0.00 0.00 56 1005.5
20260507203005 24 317 9.7 11.3 0.00 0.00 0.00 56 1005.4
20260507202711 24 308 1.6 11.3 0.00 0.00 0.00 55 1005.4
20260507202505 25 303 6.4 11.3 0.00 0.00 0.00 55 1005.4
20260507202211 25 314 6.4 11.3 0.00 0.00 0.00 54 1005.4
20260507202007 25 306 3.2 4.8 0.00 0.00 0.00 54 1005.4
20260507201713 25 306 0.0 4.8 0.00 0.00 0.00 54 1005.4
20260507201506 25 326 1.6 9.7 0.00 0.00 0.00 54 1005.4
20260507201211 25 300 0.0 16.1 0.00 0.00 0.00 54 1005.2
20260507201006 25 303 0.0 16.1 0.00 0.00 0.00 54 1005.2
20260507200711 25 290 4.8 16.1 0.00 0.00 0.00 53 1005.4
20260507200505 25 274 12.9 16.1 0.00 0.00 0.00 52 1005.3
20260507200210 26 275 4.8 11.3 0.00 0.00 0.00 52 1005.3
20260507200007 26 253 3.2 11.3 0.00 0.00 0.00 51 1005.3
20260507195712 26 258 4.8 14.5 0.00 0.00 0.00 51 1005.3
20260507195506 26 256 8.0 14.5 0.00 0.00 0.00 51 1005.3
20260507195212 27 252 4.8 14.5 0.00 0.00 0.00 50 1005.4
20260507195006 27 261 6.4 14.5 0.00 0.00 0.00 50 1005.3
20260507194711 27 269 6.4 12.9 0.00 0.00 0.00 50 1005.5
20260507194507 27 290 9.7 12.9 0.00 0.00 0.00 50 1005.3
20260507194213 27 313 6.4 12.9 0.00 0.00 0.00 51 1005.4
20260507194006 26 310 3.2 12.9 0.00 0.00 0.00 51 1005.5
20260507193711 26 290 8.0 14.5 0.00 0.00 0.00 52 1005.6
20260507193506 26 277 4.8 14.5 0.00 0.00 0.00 52 1005.4
20260507193211 25 269 4.8 14.5 0.00 0.00 0.00 53 1005.5
20260507193005 25 263 8.0 19.3 0.00 0.00 0.00 53 1005.4
20260507192711 25 242 6.4 19.3 0.00 0.00 0.00 53 1005.6
20260507192505 25 250 4.8 19.3 0.00 0.00 0.00 53 1005.5
20260507192007 25 259 6.4 19.3 0.00 0.00 0.00 53 1005.4
20260507191712 25 286 6.4 19.3 0.00 0.00 0.00 52 1005.3
20260507191506 25 300 8.0 19.3 0.00 0.00 0.00 52 1005.3
20260507191005 25 317 4.8 14.5 0.00 0.00 0.00 52 1005.4
20260507190505 25 288 4.8 27.4 0.00 0.00 0.00 52 1005.3
20260507190213 25 264 8.0 27.4 0.00 0.00 0.00 52 1005.4
20260507190007 25 263 6.4 27.4 0.00 0.00 0.00 51 1005.3
20260507185714 25 252 17.7 27.4 0.00 0.00 0.00 50 1005.3
20260507185506 25 248 12.9 25.7 0.00 0.00 0.00 50 1005.4
20260507185211 25 270 3.2 24.1 0.00 0.00 0.00 50 1005.1
20260507185006 25 268 6.4 24.1 0.00 0.00 0.00 50 1004.9
20260507184712 25 230 12.9 35.4 0.00 0.00 0.00 50 1005.1
20260507184505 25 257 8.0 35.4 0.00 0.00 0.00 50 1005.1
20260507184211 26 243 14.5 35.4 0.00 0.00 0.00 50 1005.2
20260507184007 26 226 11.3 35.4 0.00 0.00 0.00 50 1005.0
20260507183712 25 277 8.0 24.1 0.00 0.00 0.00 50 1005.5
20260507183506 25 265 14.5 24.1 0.00 0.00 0.00 50 1005.1
20260507183212 25 288 14.5 30.6 0.00 0.00 0.00 50 1004.9
20260507183006 25 301 9.7 30.6 0.00 0.00 0.00 50 1005.0
20260507182712 25 310 11.3 33.8 0.00 0.00 0.00 50 1004.9
20260507182506 25 320 9.7 35.4 0.00 0.00 0.00 50 1004.9
20260507182211 26 302 9.7 35.4 0.00 0.00 0.00 49 1004.9
20260507182005 26 305 9.7 35.4 0.00 0.00 0.00 48 1004.8
20260507181712 26 269 19.3 35.4 0.00 0.00 0.00 46 1004.9
20260507181506 26 284 20.9 35.4 0.00 0.00 0.00 47 1005.0
20260507181212 26 270 17.7 30.6 0.00 0.00 0.00 46 1005.3
20260507181006 26 268 8.0 30.6 0.00 0.00 0.00 45 1005.0
20260507180506 27 1 14.5 24.1 0.00 0.00 0.00 41 1005.1
20260507180211 27 351 11.3 24.1 0.00 0.00 0.00 41 1005.1
20260507180007 27 1 4.8 24.1 0.00 0.00 0.00 42 1005.0
20260507175712 27 328 14.5 24.1 0.00 0.00 0.00 42 1005.5
20260507175507 27 326 19.3 24.1 0.00 0.00 0.00 46 1005.3
20260507175212 26 313 11.3 24.1 0.00 0.00 0.00 47 1005.3
20260507175006 26 301 8.0 24.1 0.00 0.00 0.00 47 1005.2
20260507174711 27 284 6.4 24.1 0.00 0.00 0.00 47 1005.4
20260507174505 27 270 14.5 24.1 0.00 0.00 0.00 46 1005.5
20260507174213 27 233 11.3 24.1 0.00 0.00 0.00 47 1005.6
20260507174007 26 336 6.4 22.5 0.00 0.00 0.00 50 1005.4
20260507173506 26 332 4.8 22.5 0.00 0.00 0.00 50 1005.2
20260507173212 26 308 12.9 25.7 0.00 0.00 0.00 50 1005.3
20260507173006 26 298 9.7 25.7 0.00 0.00 0.00 50 1005.0
20260507172711 26 283 9.7 25.7 0.00 0.00 0.00 50 1005.2
20260507172505 26 285 8.0 25.7 0.00 0.00 0.00 50 1005.4
20260507172007 26 293 9.7 19.3 0.00 0.00 0.00 50 1005.5
20260507171713 26 307 4.8 19.3 0.00 0.00 0.00 50 1005.3
20260507171506 26 299 4.8 19.3 0.00 0.00 0.00 50 1005.5
20260507171211 26 296 14.5 19.3 0.00 0.00 0.00 49 1005.4
20260507171005 26 291 8.0 19.3 0.00 0.00 0.00 48 1005.4
20260507170711 26 293 11.3 19.3 0.00 0.00 0.00 47 1005.4
20260507170505 26 322 6.4 20.9 0.00 0.00 0.00 47 1005.4
20260507170212 26 350 6.4 20.9 0.00 0.00 0.00 47 1005.6
20260507170007 26 310 9.7 30.6 0.00 0.00 0.00 48 1005.6
20260507165506 26 288 14.5 30.6 0.00 0.00 0.00 47 1005.6
20260507165211 26 277 16.1 30.6 0.00 0.00 0.00 46 1005.6
20260507165006 26 308 8.0 38.6 0.00 0.00 0.00 48 1005.9
20260507164711 26 311 14.5 38.6 0.00 0.00 0.00 48 1005.8
20260507164507 26 312 9.7 38.6 0.00 0.00 0.00 47 1005.9
20260507164212 26 309 9.7 38.6 0.00 0.00 0.00 47 1005.7
20260507164007 26 294 14.5 25.7 0.00 0.00 0.00 48 1006.0
20260507163506 26 294 9.7 20.9 0.00 0.00 0.00 49 1006.1
20260507163212 26 281 9.7 24.1 0.00 0.00 0.00 50 1005.8
20260507163006 26 282 9.7 40.2 0.00 0.00 0.00 50 1006.1
20260507162711 26 273 9.7 40.2 0.00 0.00 0.00 49 1006.4
20260507162505 26 268 14.5 40.2 0.00 0.00 0.00 48 1006.1
20260507162212 26 276 9.7 40.2 0.00 0.00 0.00 49 1006.0
20260507162007 26 276 14.5 35.4 0.00 0.00 0.00 49 1006.2
20260507161714 26 263 14.5 40.2 0.00 0.00 0.00 48 1006.3
20260507161506 26 272 11.3 40.2 0.00 0.00 0.00 48 1006.4
20260507161211 26 277 12.9 40.2 0.00 0.00 0.00 46 1006.8
20260507161006 26 279 19.3 40.2 0.00 0.00 0.00 45 1006.7
20260507160507 27 296 14.5 29.0 0.00 0.00 0.00 43 1006.6
20260507160213 27 313 6.4 29.0 0.00 0.00 0.00 44 1006.5
20260507160006 27 307 4.8 29.0 0.00 0.00 0.00 44 1006.3
20260507155506 27 298 9.7 25.7 0.00 0.00 0.00 44 1006.7
20260507155212 27 282 14.5 27.4 0.00 0.00 0.00 50 1006.4
20260507155006 27 276 17.7 27.4 0.00 0.00 0.00 50 1006.5
20260507154507 27 281 14.5 30.6 0.00 0.00 0.00 51 1006.6
20260507154008 26 313 17.7 30.6 0.00 0.00 0.00 52 1006.5
20260507153506 26 317 9.7 27.4 0.00 0.00 0.00 54 1006.8
20260507153211 27 329 9.7 17.7 0.00 0.00 0.00 55 1006.9
20260507153005 27 331 9.7 19.3 0.00 0.00 0.00 55 1006.7
20260507152713 27 331 6.4 19.3 0.00 0.00 0.00 56 1006.9
20260507152507 27 328 8.0 19.3 0.00 0.00 0.00 56 1006.8
20260507152212 27 318 9.7 19.3 0.00 0.00 0.00 55 1007.0
20260507152006 27 292 4.8 20.9 0.00 0.00 0.00 55 1007.1
20260507151506 26 289 6.4 20.9 0.00 0.00 0.00 56 1007.3
20260507151212 26 285 11.3 27.4 0.00 0.00 0.00 55 1007.2
20260507151007 26 287 12.9 27.4 0.00 0.00 0.00 55 1007.6
20260507150507 26 289 9.7 29.0 0.00 0.00 0.00 56 1007.4
20260507150213 26 289 12.9 29.0 0.00 0.00 0.00 56 1007.4
20260507150006 26 311 9.7 29.0 0.00 0.00 0.00 57 1007.5
20260507145712 26 315 9.7 29.0 0.00 0.00 0.00 56 1007.6
20260507145506 26 321 19.3 29.0 0.00 0.00 0.00 56 1007.7
20260507145211 26 338 4.8 22.5 0.00 0.00 0.00 60 1007.9
20260507145005 26 308 4.8 22.5 0.00 0.00 0.00 60 1007.7
20260507144711 26 281 11.3 22.5 0.00 0.00 0.00 59 1007.7
20260507144507 26 270 9.7 19.3 0.00 0.00 0.00 60 1008.1
20260507144006 25 285 4.8 22.5 0.00 0.00 0.00 60 1008.2
20260507143712 25 314 9.7 22.5 0.00 0.00 0.00 61 1008.2
20260507143506 25 319 8.0 22.5 0.00 0.00 0.00 61 1008.6
20260507143212 25 331 19.3 22.5 0.00 0.00 0.00 61 1008.8
20260507143006 25 335 9.7 19.3 0.00 0.00 0.00 62 1008.6
20260507142711 24 309 9.7 19.3 0.00 0.00 0.00 63 1008.7
20260507142505 24 327 11.3 19.3 0.00 0.00 0.00 64 1008.7
20260507142212 23 339 9.7 24.1 0.00 0.00 0.00 64 1008.8
20260507142007 23 340 6.4 24.1 0.00 0.00 0.00 64 1009.0
20260507141713 23 358 9.7 24.1 0.00 0.00 0.00 64 1008.9
20260507141506 23 4 6.4 24.1 0.00 0.00 0.00 65 1009.2
20260507141211 23 338 4.8 16.1 0.00 0.00 0.00 66 1009.0
20260507141007 23 313 4.8 24.1 0.00 0.00 0.00 65 1008.9
20260507140711 23 281 6.4 24.1 0.00 0.00 0.00 66 1009.1
20260507140505 23 269 4.8 24.1 0.00 0.00 0.00 66 1009.0
20260507140213 23 236 8.0 24.1 0.00 0.00 0.00 65 1009.1
20260507140007 23 269 17.7 24.1 0.00 0.00 0.00 65 1009.4
20260507135712 23 243 4.8 19.3 0.00 0.00 0.00 65 1009.3
20260507135506 23 232 4.8 19.3 0.00 0.00 0.00 65 1009.5
20260507135211 23 251 11.3 17.7 0.00 0.00 0.00 65 1009.6
20260507135006 23 255 9.7 25.7 0.00 0.00 0.00 65 1009.8
20260507134507 23 281 8.0 25.7 0.00 0.00 0.00 66 1009.9
20260507134213 23 299 4.8 25.7 0.00 0.00 0.00 67 1009.8
20260507134007 22 318 11.3 19.3 0.00 0.00 0.00 67 1009.9
20260507133712 22 312 9.7 19.3 0.00 0.00 0.00 68 1010.0
20260507133506 22 338 6.4 16.1 0.00 0.00 0.00 69 1010.1
20260507133212 22 310 11.3 16.1 0.00 0.00 0.00 68 1010.2
20260507133005 22 292 8.0 16.1 0.00 0.00 0.00 69 1010.0
20260507132711 22 321 4.8 22.5 0.00 0.00 0.00 69 1010.1
20260507132507 22 312 3.2 22.5 0.00 0.00 0.00 69 1010.3
20260507132215 22 319 9.7 22.5 0.00 0.00 0.00 69 1010.1
20260507132007 22 321 4.8 22.5 0.00 0.00 0.00 70 1010.2
20260507131506 22 326 6.4 14.5 0.00 0.00 0.00 70 1010.3
20260507131005 22 298 8.0 17.7 0.00 0.00 0.00 70 1010.4
20260507130712 22 300 4.8 17.7 0.00 0.00 0.00 70 1010.3
20260507130507 22 299 6.4 20.9 0.00 0.00 0.00 70 1010.5
20260507130213 22 304 6.4 20.9 0.00 0.00 0.00 70 1010.3
20260507130006 22 319 9.7 20.9 0.00 0.00 0.00 70 1010.5
20260507125712 22 325 16.1 20.9 0.00 0.00 0.00 69 1010.3
20260507125506 22 322 4.8 12.9 0.00 0.00 0.00 70 1010.5
20260507125213 22 321 8.0 14.5 0.00 0.00 0.00 70 1010.5
20260507125006 22 309 6.4 14.5 0.00 0.00 0.00 70 1010.5
20260507124711 22 303 4.8 14.5 0.00 0.00 0.00 70 1010.7
20260507124507 22 308 9.7 14.5 0.00 0.00 0.00 70 1010.5
20260507124212 22 304 4.8 11.3 0.00 0.00 0.00 70 1010.6
20260507124006 22 302 6.4 11.3 0.00 0.00 0.00 73 1010.6
20260507123712 22 307 3.2 17.7 0.00 0.00 0.00 73 1010.6
20260507123506 22 303 6.4 17.7 0.00 0.00 0.00 73 1010.5
20260507123211 22 304 4.8 17.7 0.00 0.00 0.00 73 1010.7
20260507123007 21 301 8.0 17.7 0.00 0.00 0.00 73 1010.6
20260507122507 21 265 4.8 17.7 0.00 0.00 0.00 74 1010.8
20260507122212 21 272 4.8 17.7 0.00 0.00 0.00 74 1010.6
20260507122006 21 282 4.8 17.7 0.00 0.00 0.00 74 1010.8
20260507121506 21 297 4.8 14.5 0.00 0.00 0.00 74 1010.8
20260507121211 21 292 4.8 14.5 0.00 0.00 0.00 74 1011.0
20260507121005 21 295 4.8 11.3 0.00 0.00 0.00 74 1010.8
20260507120507 21 293 1.6 11.3 0.00 0.00 0.00 74 1010.9
20260507120212 21 301 6.4 11.3 0.00 0.00 0.00 74 1010.8
20260507120006 21 294 4.8 17.7 0.00 0.00 0.00 74 1010.8
20260507115712 21 309 4.8 17.7 0.00 0.00 0.00 74 1010.9
20260507115506 21 328 4.8 17.7 0.00 0.00 0.00 74 1010.9
20260507115211 21 272 6.4 17.7 0.00 0.00 0.00 74 1011.0
20260507115006 21 218 4.8 14.5 0.00 0.00 0.00 74 1010.9
20260507114714 21 247 6.4 14.5 0.00 0.00 0.00 74 1010.7
20260507114506 21 251 8.0 16.1 0.00 0.00 0.00 75 1010.6
20260507114212 21 274 4.8 16.1 0.00 0.00 0.00 75 1010.7
20260507114006 21 273 9.7 16.1 0.00 0.00 0.00 75 1010.7
20260507113712 21 277 8.0 16.1 0.00 0.00 0.00 75 1010.7
20260507113506 21 288 4.8 12.9 0.00 0.00 0.00 75 1010.8
20260507113211 21 306 6.4 14.5 0.00 0.00 0.00 75 1010.7
20260507113007 21 336 6.4 16.1 0.00 0.00 0.00 75 1010.7
20260507112712 21 315 4.8 16.1 0.00 0.00 0.00 75 1010.8
20260507112507 21 308 4.8 16.1 0.00 0.00 0.00 75 1010.6
20260507112212 21 291 9.7 16.1 0.00 0.00 0.00 75 1010.6
20260507112006 21 272 9.7 14.5 0.00 0.00 0.00 76 1010.6
20260507111714 21 268 3.2 12.9 0.00 0.00 0.00 76 1010.6
20260507111506 21 268 8.0 12.9 0.00 0.00 0.00 77 1010.6
20260507111213 21 282 9.7 12.9 0.00 0.00 0.00 77 1010.8
20260507111007 21 295 6.4 9.7 0.00 0.00 0.00 77 1010.8
20260507110712 20 295 1.6 9.7 0.00 0.00 0.00 78 1010.8
20260507110506 20 284 3.2 16.1 0.00 0.00 0.00 78 1010.9
20260507110212 20 278 4.8 16.1 0.00 0.00 0.00 78 1011.1
20260507110006 20 272 4.8 16.1 0.00 0.00 0.00 78 1011.0
20260507105711 20 264 4.8 16.1 0.00 0.00 0.00 78 1011.0
20260507105505 20 262 9.7 16.1 0.00 0.00 0.00 78 1011.1
20260507105213 20 257 4.8 11.3 0.00 0.00 0.00 78 1011.1
20260507105007 20 265 4.8 16.1 0.00 0.00 0.00 78 1010.9
20260507104506 20 287 4.8 16.1 0.00 0.00 0.00 78 1011.2
20260507104005 20 305 6.4 12.9 0.00 0.00 0.00 78 1011.0
20260507103507 20 276 3.2 16.1 0.00 0.00 0.00 77 1010.9
20260507103007 20 276 4.8 16.1 0.00 0.00 0.00 78 1010.9
20260507102506 20 283 3.2 16.1 0.00 0.00 0.00 78 1011.1
20260507102007 20 271 9.7 19.3 0.00 0.00 0.00 78 1010.9
20260507101507 20 282 9.7 19.3 0.00 0.00 0.00 78 1011.1
20260507101006 20 300 6.4 16.1 0.00 0.00 0.00 79 1011.1
20260507100506 20 299 9.7 14.5 0.00 0.00 0.00 80 1011.0
20260507100005 20 271 11.3 14.5 0.00 0.00 0.00 80 1011.0
20260507095507 20 275 9.7 14.5 0.00 0.00 0.00 80 1010.7
20260507095006 20 285 4.8 19.3 0.00 0.00 0.00 80 1010.8
20260507094506 20 281 6.4 19.3 0.00 0.00 0.00 80 1011.0
20260507094005 20 285 14.5 19.3 0.00 0.00 0.00 80 1011.0
20260507093507 20 288 4.8 11.3 0.00 0.00 0.00 80 1011.0
20260507093006 20 273 8.0 14.5 0.00 0.00 0.00 80 1010.8
20260507092506 20 265 4.8 17.7 0.00 0.00 0.00 79 1011.0
20260507092006 20 276 6.4 17.7 0.00 0.00 0.00 79 1011.0
20260507091507 20 270 11.3 17.7 0.00 0.00 0.00 79 1011.0
20260507091006 20 290 6.4 14.5 0.00 0.00 0.00 79 1011.3
20260507090507 20 323 4.8 19.3 0.00 0.00 0.00 78 1011.2
20260507090006 20 274 4.8 19.3 0.00 0.00 0.00 78 1011.0
20260507085508 20 295 9.7 17.7 0.00 0.00 0.00 78 1010.9
20260507085007 21 308 4.8 16.1 0.00 0.00 0.00 78 1011.1
20260507084506 21 290 8.0 16.1 0.00 0.00 0.00 78 1011.0
20260507084006 21 230 1.6 14.5 0.00 0.00 0.00 77 1011.0
20260507083507 21 246 6.4 14.5 0.00 0.00 0.00 77 1010.9
20260507083006 21 270 9.7 12.9 0.00 0.00 0.00 77 1011.0
20260507082506 21 270 4.8 14.5 0.00 0.00 0.00 77 1011.0
20260507082006 21 197 4.8 14.5 0.00 0.00 0.00 77 1011.1
20260507081507 21 196 4.8 9.7 0.00 0.00 0.00 76 1010.9
20260507081007 21 285 4.8 9.7 0.00 0.00 0.00 76 1010.8
20260507080506 21 295 3.2 9.7 0.00 0.00 0.00 76 1011.0
20260507080007 21 272 8.0 12.9 0.00 0.00 0.00 76 1010.8